Weather History for Casper, WY

Change the Weather History Date:

Wednesday, January 23, 2013

  Actual Average Record
Temperature  
Mean Temperature 44 °F 25 °F  
Max Temperature 50 °F 35 °F 59 °F (1981)
Min Temperature 38 °F 15 °F -39 °F (1949)
Degree Days  
Heating Degree Days 21 40  
Month to date heating degree days 948 925  
Since 1 July heating degree days 3671 4054  
Cooling Degree Days 0 0  
Month to date cooling degree days 0 0  
Year to date cooling degree days 0 0  
Moisture  
Dew Point 6 °F    
Average Humidity 21    
Maximum Humidity 28    
Minimum Humidity 14    
Precipitation  
Precipitation 0.00 in 0.02 in 0.10 in (1978)
Month to date precipitation 0.11 0.38  
Year to date precipitation 0.11 0.38  
Snow  
Snow 0.00 in 0.30 in - ()
Month to date snowfall 2.2 6.8  
Since 1 July snowfall 20.9 37.3  
Snow Depth 0.00 in    
Sea Level Pressure  
Sea Level Pressure 30.07 in    
Wind  
Wind Speed 21 mph (SW)    
Max Wind Speed 30 mph    
Max Gust Speed 38 mph    
Visibility 10 miles    
Events      
T = Trace of Precipitation, MM = Missing Value Source: NWS Daily Summary

Daily Weather History Graph

Daily Weather History Graph

Search for Another Location

Airport:

Trip Planner

Search our weather history database for the weather conditions in past years. The results will help you decide how hot, cold, wet, or windy it might be!

Date:

Astronomy

Jan. 23, 2013 Rise Set
Actual Time 7:28 AM MST 5:07 PM MST
Civil Twilight 6:58 AM MST 5:38 PM MST
Nautical Twilight 6:23 AM MST 6:12 PM MST
Astronomical Twilight 5:49 AM MST 6:46 PM MST
Moon 2:18 PM MST (1/23) 4:43 AM MST (1/23)
Length of Visible Light 10h 40m
Length of Day
9h 38m
Waxing Gibbous, 89% of the Moon is Illuminated
Jan 23
Waxing Gibbous
Jan 26
Full
Feb 3
Last Quarter
Feb 10
New
Feb 17
First Quarter

Hourly Weather History & Observations

Time (MST) Temp. Windchill Dew Point Humidity Pressure Visibility Wind Dir Wind Speed Gust Speed Precip Events Conditions
12:53 AM 37.9 °F 26.8 °F 5.0 °F 25% 30.07 in 10.0 mi SW 24.2 mph 32.2 mph N/A   Clear
1:53 AM 39.0 °F 29.0 °F 3.9 °F 23% 30.06 in 10.0 mi SW 20.7 mph 27.6 mph N/A   Clear
2:53 AM 37.9 °F 28.2 °F 3.0 °F 23% 30.07 in 10.0 mi SW 18.4 mph 31.1 mph N/A   Clear
3:53 AM 39.0 °F 28.0 °F 3.0 °F 22% 30.06 in 10.0 mi SW 25.3 mph 32.2 mph N/A   Clear
4:53 AM 39.0 °F 28.8 °F 3.0 °F 22% 30.09 in 10.0 mi SW 21.9 mph 31.1 mph N/A   Clear
5:53 AM 39.9 °F 30.5 °F 1.9 °F 20% 30.10 in 10.0 mi SW 19.6 mph - N/A   Clear
6:53 AM 39.9 °F 29.5 °F 1.9 °F 20% 30.10 in 10.0 mi SW 24.2 mph 34.5 mph N/A   Clear
7:53 AM 39.0 °F 28.5 °F 3.0 °F 22% 30.12 in 10.0 mi SW 23.0 mph 31.1 mph N/A   Clear
8:53 AM 39.9 °F 29.7 °F 3.0 °F 21% 30.13 in 10.0 mi SSW 23.0 mph 32.2 mph N/A   Clear
9:53 AM 42.1 °F 32.8 °F 3.9 °F 21% 30.12 in 10.0 mi SSW 21.9 mph 29.9 mph N/A   Clear
10:53 AM 44.1 °F 34.8 °F 5.0 °F 20% 30.13 in 10.0 mi SW 25.3 mph 31.1 mph N/A   Clear
11:53 AM 50.0 °F - 3.9 °F 15% 30.08 in 10.0 mi SSW 26.5 mph 34.5 mph N/A   Clear
12:53 PM 50.0 °F - 5.0 °F 16% 30.05 in 10.0 mi SSW 23.0 mph 32.2 mph N/A   Clear
1:53 PM 50.0 °F - 6.1 °F 17% 30.04 in 10.0 mi SW 23.0 mph 31.1 mph N/A   Clear
2:53 PM 48.2 °F - 6.8 °F 19% 30.06 in 10.0 mi SSW 24.2 mph 29.9 mph N/A   Clear
3:53 PM 46.0 °F 40.2 °F 8.1 °F 21% 30.05 in 10.0 mi SSW 12.7 mph - N/A   Clear
4:53 PM 44.1 °F 37.4 °F 10.0 °F 25% 30.07 in 10.0 mi SSW 13.8 mph - N/A   Clear
5:53 PM 43.0 °F 35.7 °F 10.0 °F 26% 30.06 in 10.0 mi SW 15.0 mph - N/A   Clear
6:53 PM 41.0 °F 33.1 °F 10.0 °F 28% 30.07 in 10.0 mi SW 15.0 mph 21.9 mph N/A   Clear
7:53 PM 43.0 °F 33.1 °F 8.1 °F 24% 30.02 in 10.0 mi SW 26.5 mph 35.7 mph N/A   Clear
8:53 PM 42.1 °F 33.3 °F 8.1 °F 25% 30.03 in 10.0 mi SW 19.6 mph 28.8 mph N/A   Clear
9:53 PM 39.9 °F 33.4 °F 8.1 °F 27% 30.04 in 10.0 mi SW 10.4 mph - N/A   Clear
10:53 PM 41.0 °F 33.1 °F 8.1 °F 26% 30.01 in 10.0 mi WSW 15.0 mph - N/A   Clear
11:53 PM 39.0 °F 29.3 °F 8.1 °F 28% 29.99 in 10.0 mi SW 19.6 mph - N/A   Clear